Location: ???????????
(54.6970°N, 39.1477°E)
Time: 12:57:20
(UTC+00:00)

Cosmos 1536 - Pass Details

Date: 19 May 2025
Orbit: 494 x 518 km, 82.5° (Epoch: 20 June)

Event Time Altitude Azimuth Distance (km) Brightness Sun altitude
Rises 19:54:32 0° 343° (NNW) 2,648 8.4 -13.1°
Reaches altitude 10° 19:56:46 10° 336° (NNW) 1,751 6.9 -13.3°
Maximum altitude 20:00:21 39° 267° (W) 777 3.7 -13.4°
Enters shadow 20:03:03 16° 203° (SSW) 1,404 4.5 -13.6°
